STARLINK-2159, 47745

Orbit data source: Space-Track

STARLINK-2159, 47745 is a payload satellite owned by SpaceX/Seattle (US) in LEO that was launched on Thu, 04 Mar 2021 UTC via an FALCON 9 launch vehicle from the Air Force Eastern Test Range (AFETR). Payload-class satellites include a variety of spacecraft equipped with specific instruments for various scientific and technological missions. These include communications satellites like Starlink; space stations such as the ISS; scientific satellites like the Hubble; Earth observation satellites from companies like Planet Labs, Umbra, and HawkEye 360; GPS; miniature CubeSats for education and research; and military/defense satellites.

Not visible in the next 10 days
Identifier
47745, 2021-017Z
Orbit
LEO
Country
Flag of USUS
Related business
Manufacturer
SpaceX/Seattle
Mission
Partially operational Commercial Communications
Bus & Motor
STARLINK, Unknown motor
Mass
260 kg wet, ~248 kg dry
Launch date (UTC)
2021-03-04 (5 years ago)
Launch vehicle
FALCON 9
Launch site
Air Force Eastern Test Range (AFETR)
Object type
Payload
Rocket body
Debris
Shape & HBR
Box + 1 Pan, 10.1 m
Radar Cross Section
13.562 m², Large (>1 m²)

Expand to show TLE details & history
Last TLE update: 14 hours ago

TLE from 14 hours ago
0 STARLINK-2159
1 47745U 21017Z   26235.91804274  .00525737  13640-3  86906-3 0  9999
2 47745  53.1430 106.1497 0006495 237.5704 122.4700 16.02495921304018
Epoch: 2026-08-23T22:01Z
TLE epoch observation values (Epoch: 2026-08-23T22:01:58.892Z)
Latitude
-0.00004°
Longitude
163.44708°
Altitude
270.754 km
Speed
7.745 km/s
True Right ascension
07h 04m 35s
True Declination
0° 00' 00"
Sunlit
Object was in daylight at epoch
Visualization orbit readout
Latitude
Unknown
Longitude
Unknown
Altitude
Unknown
Speed
Unknown
Apparent Right ascension
Unknown
Apparent Declination
Unknown
Sunlit
N/A
Visualization observer readout
Local Sidereal Time
02:48:42
Azimuth
Unknown
Elevation
Unknown
Doppler factor
Unknown
Orbital elements
Apogee altitude
272.093 km
Perigee altitude
263.46 km
Semi-major axis
6,645.913 km
Eccentricity
0.00065
Inclination
53.143°
RAAN
106.1497°
Arg. of periapsis
237.5704°
True anomaly
122.53276°
Mean anomaly
122.47°
Eccentric anomaly
122.50139°
Mean motion
4.006 °/min
Orbital period
89.87 mins
BSTAR
0.00086906
Loading maneuver chart data...
Computing Atmospheric mass density...

Documentation

Showing up to 5 results
|